Cosmos 2219 - Orbit

View from above orbital plane
View from above orbital plane
View from above satellite
View from above satellite

Ground track
Ground track

The orbit data is extracted from the following two-line orbital elements,

1 22219U 92076A   13143.13785025 -.00000133  00000-0 -45524-4 0  2348
2 22219 071.0596 061.5085 0017031 143.4364 316.2739 14.13420481 58224
Epoch (UTC): 23 May 2013 03:18:30
Eccentricity: 0.0017031
inclination: 71.0596°
perigee height: 835 km
apogee height: 860 km
right ascension of ascending node: 61.5085°
argument of perigee: 143.4364°
revolutions per day: 14.13420481
mean anomaly at epoch: 316.2739°
orbit number at epoch: 5822

The dashed part of the orbit path shows where the satellite is in the earth's shadow,  

Developed and maintained by Chris Peat, Heavens-Above GmbH. Please read the updated FAQ before sending e-mail. Imprint. DLR